Time,TemperatureF,DewpointF,PressureIn,WindDirection,WindDirectionDegrees,WindSpeedMPH,WindSpeedGustMPH,Humidity,HourlyPrecipIn,Conditions,Clouds,dailyrainin,SoftwareType,DateUTC
2013-12-13 00:01:00,32.8,23.7,30.18,WSW,248,7.6,10.5,69,0.00,,,0.00,WUHU216HW,2013-12-13 06:01:00,
2013-12-13 00:06:00,32.6,23.9,30.17,SSW,203,5.4,9.6,70,0.00,,,0.00,WUHU216HW,2013-12-13 06:06:00,
2013-12-13 00:11:00,32.4,23.4,30.17,SW,225,8.5,9.2,69,0.00,,,0.00,WUHU216HW,2013-12-13 06:11:00,
2013-12-13 00:16:00,32.4,23.8,30.17,SW,225,5.4,9.4,70,0.00,,,0.00,WUHU216HW,2013-12-13 06:16:00,
2013-12-13 00:21:00,32.4,23.8,30.17,SW,225,4.9,9.8,70,0.00,,,0.00,WUHU216HW,2013-12-13 06:21:00,
2013-12-13 00:26:00,32.2,23.6,30.17,SW,225,4.5,10.5,70,0.00,,,0.00,WUHU216HW,2013-12-13 06:26:00,
2013-12-13 00:31:00,32.0,23.4,30.17,SW,225,5.1,11.2,70,0.00,,,0.00,WUHU216HW,2013-12-13 06:31:00,
2013-12-13 00:36:00,32.0,23.8,30.16,SW,225,8.9,11.2,71,0.00,,,0.00,WUHU216HW,2013-12-13 06:36:00,
2013-12-13 00:41:00,32.0,23.8,30.17,SSW,203,4.7,9.8,71,0.00,,,0.00,WUHU216HW,2013-12-13 06:41:00,
2013-12-13 00:46:00,31.9,23.9,30.17,SW,225,4.7,9.8,72,0.00,,,0.00,WUHU216HW,2013-12-13 06:46:00,
2013-12-13 00:51:00,31.7,23.7,30.16,SSW,203,2.7,8.3,72,0.00,,,0.00,WUHU216HW,2013-12-13 06:51:00,
2013-12-13 00:56:00,31.5,23.5,30.17,SW,225,2.2,7.2,72,0.00,,,0.00,WUHU216HW,2013-12-13 06:56:00,
2013-12-13 01:01:00,31.3,23.3,30.16,SW,225,2.0,6.3,72,0.00,,,0.00,WUHU216HW,2013-12-13 07:01:00,
2013-12-13 01:06:00,31.3,23.7,30.16,SW,225,2.5,6.7,73,0.00,,,0.00,WUHU216HW,2013-12-13 07:06:00,
2013-12-13 01:11:00,31.1,23.5,30.16,SSW,203,3.1,6.7,73,0.00,,,0.00,WUHU216HW,2013-12-13 07:11:00,
2013-12-13 01:16:00,31.0,23.6,30.16,SSW,203,7.6,7.6,74,0.00,,,0.00,WUHU216HW,2013-12-13 07:16:00,
2013-12-13 01:21:00,31.0,23.6,30.16,SW,225,5.6,7.6,74,0.00,,,0.00,WUHU216HW,2013-12-13 07:21:00,
2013-12-13 01:26:00,30.8,23.8,30.15,SSW,203,4.3,6.9,75,0.00,,,0.00,WUHU216HW,2013-12-13 07:26:00,
2013-12-13 01:31:00,30.6,23.6,30.15,SSW,203,3.4,6.9,75,0.00,,,0.00,WUHU216HW,2013-12-13 07:31:00,
2013-12-13 01:36:00,30.6,23.6,30.15,SSW,203,3.4,6.0,75,0.00,,,0.00,WUHU216HW,2013-12-13 07:36:00,
2013-12-13 01:41:00,30.4,23.4,30.15,SSW,203,2.9,5.4,75,0.00,,,0.00,WUHU216HW,2013-12-13 07:41:00,
2013-12-13 01:47:00,30.4,23.4,30.15,SSW,203,3.4,5.6,75,0.00,,,0.00,WUHU216HW,2013-12-13 07:47:00,
2013-12-13 01:52:00,30.4,23.4,30.15,SSW,203,4.7,5.6,75,0.00,,,0.00,WUHU216HW,2013-12-13 07:52:00,
2013-12-13 01:57:00,30.1,23.0,30.15,South,180,3.8,4.7,75,0.00,,,0.00,WUHU216HW,2013-12-13 07:57:00,
2013-12-13 02:09:00,29.9,23.2,30.15,SSW,203,4.0,4.7,76,0.00,,,0.00,WUHU216HW,2013-12-13 08:09:00,
2013-12-13 02:14:00,29.9,23.2,30.14,SSW,203,5.4,6.3,76,0.00,,,0.00,WUHU216HW,2013-12-13 08:14:00,
2013-12-13 02:19:00,29.7,23.1,30.14,SW,225,4.7,6.3,76,0.00,,,0.00,WUHU216HW,2013-12-13 08:19:00,
2013-12-13 02:24:00,29.5,22.9,30.14,SSW,203,5.1,5.6,76,0.00,,,0.00,WUHU216HW,2013-12-13 08:24:00,
2013-12-13 02:29:00,29.5,22.9,30.13,SSW,203,4.5,5.6,76,0.00,,,0.00,WUHU216HW,2013-12-13 08:29:00,
2013-12-13 02:34:00,29.5,22.9,30.13,South,180,1.6,5.6,76,0.00,,,0.00,WUHU216HW,2013-12-13 08:34:00,
2013-12-13 02:39:00,29.5,22.9,30.13,SW,225,4.3,4.7,76,0.00,,,0.00,WUHU216HW,2013-12-13 08:39:00,
2013-12-13 02:44:00,29.3,22.7,30.13,WSW,248,3.1,4.3,76,0.00,,,0.00,WUHU216HW,2013-12-13 08:44:00,
2013-12-13 02:49:00,29.2,22.9,30.12,SSW,203,2.7,3.8,77,0.00,,,0.00,WUHU216HW,2013-12-13 08:49:00,
2013-12-13 02:54:00,29.0,22.3,30.12,South,180,2.5,3.4,76,0.00,,,0.00,WUHU216HW,2013-12-13 08:54:00,
2013-12-13 02:59:00,28.8,21.9,30.12,South,180,1.3,3.4,75,0.00,,,0.00,WUHU216HW,2013-12-13 08:59:00,
2013-12-13 03:04:00,28.4,21.8,30.12,South,180,2.2,2.7,76,0.00,,,0.00,WUHU216HW,2013-12-13 09:04:00,
2013-12-13 03:09:00,28.3,22.2,30.12,South,180,2.5,2.7,78,0.00,,,0.00,WUHU216HW,2013-12-13 09:09:00,
2013-12-13 03:14:00,27.7,21.7,30.11,South,180,2.9,3.1,78,0.00,,,0.00,WUHU216HW,2013-12-13 09:14:00,
2013-12-13 03:19:00,27.5,21.9,30.11,South,180,2.0,3.1,79,0.00,,,0.00,WUHU216HW,2013-12-13 09:19:00,
2013-12-13 03:24:00,27.4,21.3,30.11,SSW,203,3.1,3.4,78,0.00,,,0.00,WUHU216HW,2013-12-13 09:24:00,
2013-12-13 03:29:00,27.4,21.7,30.11,South,180,2.5,3.4,79,0.00,,,0.00,WUHU216HW,2013-12-13 09:29:00,
2013-12-13 03:34:00,27.4,21.7,30.12,South,180,3.6,3.6,79,0.00,,,0.00,WUHU216HW,2013-12-13 09:34:00,
2013-12-13 03:39:00,27.4,21.7,30.11,SSE,158,3.1,3.6,79,0.00,,,0.00,WUHU216HW,2013-12-13 09:39:00,
2013-12-13 03:44:00,27.4,21.7,30.11,South,180,2.5,3.4,79,0.00,,,0.00,WUHU216HW,2013-12-13 09:44:00,
2013-12-13 03:49:00,27.4,21.7,30.11,South,180,1.6,3.4,79,0.00,,,0.00,WUHU216HW,2013-12-13 09:49:00,
2013-12-13 03:54:00,27.4,21.7,30.11,South,180,1.6,3.4,79,0.00,,,0.00,WUHU216HW,2013-12-13 09:54:00,
2013-12-13 03:59:00,27.4,21.7,30.10,South,180,2.5,2.7,79,0.00,,,0.00,WUHU216HW,2013-12-13 09:59:00,
2013-12-13 04:04:00,27.2,21.2,30.10,SSE,158,1.6,2.7,78,0.00,,,0.00,WUHU216HW,2013-12-13 10:04:00,
2013-12-13 04:09:00,27.2,21.8,30.10,SSW,203,2.0,2.7,80,0.00,,,0.00,WUHU216HW,2013-12-13 10:09:00,
2013-12-13 04:14:00,27.4,22.0,30.09,South,180,2.9,3.1,80,0.00,,,0.00,WUHU216HW,2013-12-13 10:14:00,
2013-12-13 04:19:00,27.4,22.0,30.09,South,180,2.5,3.1,80,0.00,,,0.00,WUHU216HW,2013-12-13 10:19:00,
2013-12-13 04:24:00,27.4,21.7,30.08,South,180,1.8,2.7,79,0.00,,,0.00,WUHU216HW,2013-12-13 10:24:00,
2013-12-13 04:29:00,27.4,21.7,30.08,SSE,158,0.9,1.8,79,0.00,,,0.00,WUHU216HW,2013-12-13 10:29:00,
2013-12-13 04:34:00,27.2,21.5,30.08,SSE,158,1.3,1.8,79,0.00,,,0.00,WUHU216HW,2013-12-13 10:34:00,
2013-12-13 04:39:00,27.0,21.3,30.08,SSW,203,1.3,1.8,79,0.00,,,0.00,WUHU216HW,2013-12-13 10:39:00,
2013-12-13 04:44:00,27.0,21.3,30.08,SSE,158,0.4,1.8,79,0.00,,,0.00,WUHU216HW,2013-12-13 10:44:00,
2013-12-13 04:49:00,27.2,21.5,30.08,SSW,203,0.7,1.3,79,0.00,,,0.00,WUHU216HW,2013-12-13 10:49:00,
2013-12-13 04:54:00,27.4,21.3,30.08,SSW,203,0.0,1.1,78,0.00,,,0.00,WUHU216HW,2013-12-13 10:54:00,
2013-12-13 04:59:00,27.5,21.5,30.08,SSW,203,1.6,1.8,78,0.00,,,0.00,WUHU216HW,2013-12-13 10:59:00,
2013-12-13 05:04:00,27.5,21.3,30.07,South,180,0.0,1.8,77,0.00,,,0.00,WUHU216HW,2013-12-13 11:04:00,
2013-12-13 05:09:00,27.5,21.3,30.07,South,180,0.4,1.6,77,0.00,,,0.00,WUHU216HW,2013-12-13 11:09:00,
2013-12-13 05:14:00,27.4,21.1,30.07,SSE,158,0.7,0.7,77,0.00,,,0.00,WUHU216HW,2013-12-13 11:14:00,
2013-12-13 05:19:00,27.4,21.1,30.07,SE,135,1.1,1.1,77,0.00,,,0.00,WUHU216HW,2013-12-13 11:19:00,
2013-12-13 05:24:00,27.5,21.3,30.07,ESE,113,0.4,1.1,77,0.00,,,0.00,WUHU216HW,2013-12-13 11:24:00,
2013-12-13 05:29:00,27.5,21.3,30.06,East,90,0.4,1.1,77,0.00,,,0.00,WUHU216HW,2013-12-13 11:29:00,
2013-12-13 05:34:00,27.4,21.1,30.06,ESE,113,0.4,0.9,77,0.00,,,0.00,WUHU216HW,2013-12-13 11:34:00,
2013-12-13 05:39:00,27.2,20.9,30.06,East,90,0.7,1.1,77,0.00,,,0.00,WUHU216HW,2013-12-13 11:39:00,
2013-12-13 05:44:00,27.2,20.9,30.06,ESE,113,0.7,1.6,77,0.00,,,0.00,WUHU216HW,2013-12-13 11:44:00,
2013-12-13 05:49:00,27.0,20.7,30.06,SE,135,1.8,2.5,77,0.00,,,0.00,WUHU216HW,2013-12-13 11:49:00,
2013-12-13 05:54:00,27.2,20.9,30.06,ESE,113,1.8,2.5,77,0.00,,,0.00,WUHU216HW,2013-12-13 11:54:00,
2013-12-13 05:59:00,27.0,20.7,30.06,East,90,1.1,1.8,77,0.00,,,0.00,WUHU216HW,2013-12-13 11:59:00,
2013-12-13 06:04:00,27.0,20.7,30.06,East,90,1.1,1.6,77,0.00,,,0.00,WUHU216HW,2013-12-13 12:04:00,
2013-12-13 06:09:00,26.8,20.8,30.06,ESE,113,1.3,1.8,78,0.00,,,0.00,WUHU216HW,2013-12-13 12:09:00,
2013-12-13 06:14:00,26.8,20.8,30.06,ESE,113,0.2,1.8,78,0.00,,,0.00,WUHU216HW,2013-12-13 12:14:00,
2013-12-13 06:19:00,26.8,20.8,30.06,ENE,68,1.3,1.3,78,0.00,,,0.00,WUHU216HW,2013-12-13 12:19:00,
2013-12-13 06:24:00,26.8,20.5,30.06,SE,135,0.4,1.3,77,0.00,,,0.00,WUHU216HW,2013-12-13 12:24:00,
2013-12-13 06:29:00,26.8,20.8,30.06,ESE,113,0.7,1.3,78,0.00,,,0.00,WUHU216HW,2013-12-13 12:29:00,
2013-12-13 06:34:00,26.8,20.8,30.06,ESE,113,2.2,2.2,78,0.00,,,0.00,WUHU216HW,2013-12-13 12:34:00,
2013-12-13 06:39:00,26.8,20.8,30.06,SE,135,2.5,2.5,78,0.00,,,0.00,WUHU216HW,2013-12-13 12:39:00,
2013-12-13 06:44:00,26.8,20.8,30.05,ESE,113,1.6,2.5,78,0.00,,,0.00,WUHU216HW,2013-12-13 12:44:00,
2013-12-13 06:49:00,26.6,20.6,30.05,SE,135,2.0,2.5,78,0.00,,,0.00,WUHU216HW,2013-12-13 12:49:00,
2013-12-13 06:54:00,26.6,20.6,30.05,ESE,113,2.2,2.5,78,0.00,,,0.00,WUHU216HW,2013-12-13 12:54:00,
2013-12-13 06:59:00,26.6,20.6,30.05,ESE,113,1.1,2.2,78,0.00,,,0.00,WUHU216HW,2013-12-13 12:59:00,
2013-12-13 07:04:00,26.5,20.4,30.05,SE,135,2.5,2.5,78,0.00,,,0.00,WUHU216HW,2013-12-13 13:04:00,
2013-12-13 07:09:00,26.5,20.8,30.05,SE,135,2.5,2.7,79,0.00,,,0.00,WUHU216HW,2013-12-13 13:09:00,
2013-12-13 07:14:00,26.6,21.0,30.05,SE,135,2.2,2.7,79,0.00,,,0.00,WUHU216HW,2013-12-13 13:14:00,
2013-12-13 07:19:00,26.5,20.8,30.05,SSE,158,2.0,2.9,79,0.00,,,0.00,WUHU216HW,2013-12-13 13:19:00,
2013-12-13 07:24:00,26.5,20.8,30.05,SE,135,3.1,4.0,79,0.00,,,0.00,WUHU216HW,2013-12-13 13:24:00,
2013-12-13 07:29:00,26.5,20.8,30.05,East,90,1.3,4.0,79,0.00,,,0.00,WUHU216HW,2013-12-13 13:29:00,
2013-12-13 07:34:00,26.5,21.1,30.05,SE,135,1.8,2.7,80,0.00,,,0.00,WUHU216HW,2013-12-13 13:34:00,
2013-12-13 07:39:00,26.8,21.4,30.05,SE,135,2.0,2.7,80,0.00,,,0.00,WUHU216HW,2013-12-13 13:39:00,
2013-12-13 07:56:00,27.4,22.0,30.04,SE,135,2.5,2.5,80,0.00,,,0.00,WUHU216HW,2013-12-13 13:56:00,
2013-12-13 08:01:00,27.5,22.1,30.04,SE,135,1.3,2.7,80,0.00,,,0.00,WUHU216HW,2013-12-13 14:01:00,
2013-12-13 08:06:00,27.7,22.6,30.04,ESE,113,4.0,4.3,81,0.00,,,0.00,WUHU216HW,2013-12-13 14:06:00,
2013-12-13 08:11:00,27.7,22.6,30.04,ESE,113,2.7,4.3,81,0.00,,,0.00,WUHU216HW,2013-12-13 14:11:00,
2013-12-13 08:16:00,27.7,22.6,30.04,SE,135,2.9,5.1,81,0.00,,,0.00,WUHU216HW,2013-12-13 14:16:00,
2013-12-13 08:21:00,27.9,23.0,30.04,SSE,158,2.5,5.1,82,0.00,,,0.00,WUHU216HW,2013-12-13 14:21:00,
2013-12-13 08:26:00,28.1,23.2,30.04,SSE,158,3.4,4.0,82,0.00,,,0.00,WUHU216HW,2013-12-13 14:26:00,
2013-12-13 08:31:00,28.3,23.4,30.04,SSE,158,3.4,4.0,82,0.00,,,0.00,WUHU216HW,2013-12-13 14:31:00,
2013-12-13 08:36:00,28.4,24.0,30.04,SSE,158,2.2,4.0,83,0.00,,,0.00,WUHU216HW,2013-12-13 14:36:00,
2013-12-13 08:41:00,28.6,24.1,30.04,SE,135,4.0,4.0,83,0.00,,,0.00,WUHU216HW,2013-12-13 14:41:00,
2013-12-13 08:47:00,29.0,24.5,30.03,SSE,158,1.1,4.0,83,0.00,,,0.00,WUHU216HW,2013-12-13 14:47:00,
2013-12-13 08:52:00,29.2,24.7,30.03,SSE,158,1.8,4.3,83,0.00,,,0.00,WUHU216HW,2013-12-13 14:52:00,
2013-12-13 08:57:00,29.5,25.0,30.03,SE,135,2.9,4.5,83,0.00,,,0.00,WUHU216HW,2013-12-13 14:57:00,
2013-12-13 09:02:00,29.9,25.4,30.03,SSE,158,2.7,4.7,83,0.00,,,0.00,WUHU216HW,2013-12-13 15:02:00,
2013-12-13 09:07:00,29.9,25.4,30.03,SE,135,6.7,6.7,83,0.00,,,0.00,WUHU216HW,2013-12-13 15:07:00,
2013-12-13 09:12:00,30.2,25.8,30.03,SSE,158,4.7,6.7,83,0.00,,,0.00,WUHU216HW,2013-12-13 15:12:00,
2013-12-13 09:17:00,30.4,25.9,30.03,SE,135,7.6,7.6,83,0.00,,,0.00,WUHU216HW,2013-12-13 15:17:00,
2013-12-13 09:22:00,30.6,26.1,30.03,SSE,158,2.0,7.6,83,0.00,,,0.00,WUHU216HW,2013-12-13 15:22:00,
2013-12-13 09:27:00,30.6,26.1,30.03,South,180,4.0,5.4,83,0.00,,,0.00,WUHU216HW,2013-12-13 15:27:00,
2013-12-13 09:32:00,30.8,26.3,30.02,SSE,158,4.7,5.4,83,0.00,,,0.00,WUHU216HW,2013-12-13 15:32:00,
2013-12-13 09:37:00,31.0,26.1,30.03,SE,135,5.4,6.3,82,0.00,,,0.00,WUHU216HW,2013-12-13 15:37:00,
2013-12-13 09:42:00,31.1,26.3,30.03,SE,135,3.6,6.3,82,0.00,,,0.00,WUHU216HW,2013-12-13 15:42:00,
2013-12-13 09:47:00,31.3,26.5,30.03,SE,135,4.5,5.4,82,0.00,,,0.00,WUHU216HW,2013-12-13 15:47:00,
2013-12-13 09:52:00,31.3,26.5,30.03,SSE,158,3.6,5.4,82,0.00,,,0.00,WUHU216HW,2013-12-13 15:52:00,
2013-12-13 09:57:00,31.7,26.8,30.03,SSE,158,3.6,4.7,82,0.00,,,0.00,WUHU216HW,2013-12-13 15:57:00,
2013-12-13 10:02:00,31.7,26.8,30.03,South,180,4.0,4.7,82,0.00,,,0.00,WUHU216HW,2013-12-13 16:02:00,
2013-12-13 10:07:00,31.9,27.4,30.03,South,180,3.1,4.7,83,0.00,,,0.00,WUHU216HW,2013-12-13 16:07:00,
2013-12-13 10:12:00,32.0,27.6,30.03,South,180,5.6,5.6,83,0.00,,,0.00,WUHU216HW,2013-12-13 16:12:00,
2013-12-13 10:17:00,32.0,27.6,30.02,SSW,203,4.0,5.6,83,0.00,,,0.00,WUHU216HW,2013-12-13 16:17:00,
2013-12-13 10:26:00,32.8,28.2,30.03,South,180,4.7,4.7,83,0.00,,,0.00,WUHU216HW,2013-12-13 16:26:00,
2013-12-13 10:32:00,32.8,28.2,30.03,SSW,203,2.2,4.7,83,0.00,,,0.00,WUHU216HW,2013-12-13 16:32:00,
2013-12-13 10:40:00,32.9,28.6,30.02,SSW,203,4.7,4.7,84,0.00,,,0.00,WUHU216HW,2013-12-13 16:40:00,
2013-12-13 10:45:00,32.8,28.7,30.02,SSW,203,3.4,6.9,85,0.01,,,0.01,WUHU216HW,2013-12-13 16:45:00,
2013-12-13 10:50:00,32.8,29.0,30.01,South,180,1.6,6.9,86,0.01,,,0.01,WUHU216HW,2013-12-13 16:50:00,
2013-12-13 10:55:00,32.8,29.0,30.01,South,180,3.1,4.7,86,0.01,,,0.01,WUHU216HW,2013-12-13 16:55:00,
2013-12-13 11:00:00,32.6,29.2,30.01,ESE,113,4.0,5.8,87,0.01,,,0.01,WUHU216HW,2013-12-13 17:00:00,
2013-12-13 11:05:00,32.6,29.4,30.00,SE,135,3.4,5.8,88,0.01,,,0.01,WUHU216HW,2013-12-13 17:05:00,
2013-12-13 11:10:00,32.4,29.3,30.00,South,180,4.0,5.4,88,0.01,,,0.01,WUHU216HW,2013-12-13 17:10:00,
2013-12-13 11:15:00,32.4,29.3,30.00,SE,135,2.5,5.4,88,0.01,,,0.01,WUHU216HW,2013-12-13 17:15:00,
2013-12-13 11:20:00,32.6,29.4,30.00,SE,135,4.7,4.7,88,0.01,,,0.01,WUHU216HW,2013-12-13 17:20:00,
2013-12-13 11:25:00,32.6,29.4,30.00,SSE,158,6.3,6.3,88,0.01,,,0.01,WUHU216HW,2013-12-13 17:25:00,
2013-12-13 11:30:00,32.8,29.9,30.00,SSE,158,5.4,6.3,89,0.01,,,0.01,WUHU216HW,2013-12-13 17:30:00,
2013-12-13 11:35:00,32.8,29.9,29.99,SSE,158,3.4,6.3,89,0.01,,,0.01,WUHU216HW,2013-12-13 17:35:00,
2013-12-13 11:40:00,32.8,29.9,29.99,SE,135,2.2,6.0,89,0.00,,,0.01,WUHU216HW,2013-12-13 17:40:00,
2013-12-13 11:45:00,33.1,30.3,29.99,SSE,158,4.5,5.8,89,0.00,,,0.01,WUHU216HW,2013-12-13 17:45:00,
2013-12-13 11:50:00,33.1,30.3,29.99,SE,135,3.8,5.8,89,0.00,,,0.01,WUHU216HW,2013-12-13 17:50:00,
2013-12-13 11:56:00,33.3,30.3,29.98,South,180,3.4,5.8,89,0.00,,,0.01,WUHU216HW,2013-12-13 17:56:00,
2013-12-13 12:01:00,33.7,30.7,29.97,South,180,3.6,4.3,89,0.00,,,0.01,WUHU216HW,2013-12-13 18:01:00,
2013-12-13 12:06:00,33.8,30.9,29.97,SSE,158,2.9,4.5,89,0.00,,,0.01,WUHU216HW,2013-12-13 18:06:00,
2013-12-13 12:11:00,34.0,30.8,29.97,South,180,3.6,6.5,88,0.00,,,0.01,WUHU216HW,2013-12-13 18:11:00,
2013-12-13 12:16:00,34.2,31.0,29.96,SE,135,3.4,6.5,88,0.00,,,0.01,WUHU216HW,2013-12-13 18:16:00,
2013-12-13 12:21:00,34.6,31.3,29.96,SSE,158,5.4,5.4,88,0.00,,,0.01,WUHU216HW,2013-12-13 18:21:00,
2013-12-13 12:26:00,35.1,31.9,29.96,South,180,4.7,7.4,88,0.00,,,0.01,WUHU216HW,2013-12-13 18:26:00,
2013-12-13 12:31:00,35.3,31.7,29.96,South,180,3.4,7.4,87,0.00,,,0.01,WUHU216HW,2013-12-13 18:31:00,
2013-12-13 12:36:00,35.1,31.5,29.96,South,180,4.3,6.0,87,0.00,,,0.01,WUHU216HW,2013-12-13 18:36:00,
2013-12-13 12:41:00,35.3,31.7,29.95,SE,135,5.4,6.0,87,0.00,,,0.01,WUHU216HW,2013-12-13 18:41:00,
2013-12-13 12:46:00,35.3,31.7,29.95,ESE,113,6.3,6.3,87,0.00,,,0.01,WUHU216HW,2013-12-13 18:46:00,
2013-12-13 12:51:00,35.3,31.7,29.95,South,180,4.9,6.3,87,0.00,,,0.01,WUHU216HW,2013-12-13 18:51:00,
2013-12-13 12:56:00,35.5,31.9,29.95,SSW,203,2.5,6.3,87,0.00,,,0.01,WUHU216HW,2013-12-13 18:56:00,
2013-12-13 13:01:00,35.6,32.0,29.94,South,180,5.1,6.5,87,0.00,,,0.01,WUHU216HW,2013-12-13 19:01:00,
2013-12-13 13:06:00,35.6,31.8,29.94,South,180,3.8,6.5,86,0.00,,,0.01,WUHU216HW,2013-12-13 19:06:00,
2013-12-13 13:11:00,35.6,31.8,29.94,SSE,158,4.7,6.3,86,0.00,,,0.01,WUHU216HW,2013-12-13 19:11:00,
2013-12-13 13:16:00,35.8,32.2,29.94,South,180,5.4,5.4,87,0.00,,,0.01,WUHU216HW,2013-12-13 19:16:00,
2013-12-13 13:21:00,35.8,32.2,29.94,SSE,158,5.4,5.4,87,0.00,,,0.01,WUHU216HW,2013-12-13 19:21:00,
2013-12-13 13:26:00,35.6,31.8,29.94,South,180,4.0,6.3,86,0.00,,,0.01,WUHU216HW,2013-12-13 19:26:00,
2013-12-13 13:31:00,35.6,31.8,29.94,SSE,158,3.1,6.3,86,0.00,,,0.01,WUHU216HW,2013-12-13 19:31:00,
2013-12-13 13:36:00,35.5,31.6,29.94,South,180,3.8,3.8,86,0.00,,,0.01,WUHU216HW,2013-12-13 19:36:00,
2013-12-13 13:41:00,35.6,31.8,29.93,SSE,158,2.5,4.7,86,0.00,,,0.01,WUHU216HW,2013-12-13 19:41:00,
2013-12-13 13:46:00,35.8,32.2,29.93,SSE,158,4.3,4.7,87,0.00,,,0.01,WUHU216HW,2013-12-13 19:46:00,
2013-12-13 13:51:00,35.8,32.2,29.93,South,180,4.0,5.6,87,0.00,,,0.01,WUHU216HW,2013-12-13 19:51:00,
2013-12-13 13:56:00,35.6,31.8,29.93,South,180,4.5,6.9,86,0.00,,,0.01,WUHU216HW,2013-12-13 19:56:00,
2013-12-13 14:01:00,35.6,31.8,29.93,SE,135,1.6,6.9,86,0.00,,,0.01,WUHU216HW,2013-12-13 20:01:00,
2013-12-13 14:06:00,35.5,31.6,29.92,SE,135,4.7,6.0,86,0.00,,,0.01,WUHU216HW,2013-12-13 20:06:00,
2013-12-13 14:11:00,35.5,31.6,29.93,SSE,158,4.7,7.4,86,0.00,,,0.01,WUHU216HW,2013-12-13 20:11:00,
2013-12-13 14:16:00,35.5,31.6,29.93,South,180,2.9,7.4,86,0.00,,,0.01,WUHU216HW,2013-12-13 20:16:00,
2013-12-13 14:21:00,35.3,31.4,29.92,SSE,158,3.8,5.6,86,0.00,,,0.01,WUHU216HW,2013-12-13 20:21:00,
2013-12-13 14:26:00,35.3,31.7,29.92,SE,135,4.0,6.5,87,0.00,,,0.01,WUHU216HW,2013-12-13 20:26:00,
2013-12-13 14:31:00,35.1,31.5,29.92,ESE,113,3.4,7.6,87,0.00,,,0.01,WUHU216HW,2013-12-13 20:31:00,
2013-12-13 14:36:00,35.1,31.5,29.92,SE,135,5.4,7.6,87,0.00,,,0.01,WUHU216HW,2013-12-13 20:36:00,
2013-12-13 14:41:00,35.1,31.9,29.92,SE,135,2.5,5.4,88,0.00,,,0.01,WUHU216HW,2013-12-13 20:41:00,
2013-12-13 14:46:00,35.1,31.9,29.92,SSE,158,5.4,6.5,88,0.00,,,0.01,WUHU216HW,2013-12-13 20:46:00,
2013-12-13 14:51:00,34.9,31.7,29.92,ESE,113,5.1,6.9,88,0.00,,,0.01,WUHU216HW,2013-12-13 20:51:00,
2013-12-13 14:56:00,34.9,31.7,29.92,SE,135,3.6,6.9,88,0.00,,,0.01,WUHU216HW,2013-12-13 20:56:00,
2013-12-13 15:01:00,35.1,31.9,29.92,East,90,4.7,6.3,88,0.00,,,0.01,WUHU216HW,2013-12-13 21:01:00,
2013-12-13 15:06:00,34.9,31.7,29.92,ESE,113,3.6,4.9,88,0.00,,,0.01,WUHU216HW,2013-12-13 21:06:00,
2013-12-13 15:11:00,34.9,31.7,29.92,SE,135,5.1,6.3,88,0.00,,,0.01,WUHU216HW,2013-12-13 21:11:00,
2013-12-13 15:16:00,34.9,32.0,29.92,SE,135,5.4,6.3,89,0.00,,,0.01,WUHU216HW,2013-12-13 21:16:00,
2013-12-13 15:21:00,34.9,31.7,29.92,SE,135,2.5,5.8,88,0.00,,,0.01,WUHU216HW,2013-12-13 21:21:00,
2013-12-13 15:26:00,34.9,31.7,29.92,ESE,113,4.0,6.0,88,0.00,,,0.01,WUHU216HW,2013-12-13 21:26:00,
2013-12-13 15:31:00,34.9,31.7,29.92,East,90,2.7,6.0,88,0.00,,,0.01,WUHU216HW,2013-12-13 21:31:00,
2013-12-13 15:36:00,34.9,31.7,29.92,ESE,113,1.1,5.1,88,0.00,,,0.01,WUHU216HW,2013-12-13 21:36:00,
2013-12-13 15:41:00,34.9,31.7,29.92,ESE,113,2.5,5.1,88,0.00,,,0.01,WUHU216HW,2013-12-13 21:41:00,
2013-12-13 15:46:00,35.1,31.9,29.92,ESE,113,3.1,3.8,88,0.00,,,0.01,WUHU216HW,2013-12-13 21:46:00,
2013-12-13 15:51:00,35.1,31.9,29.92,ESE,113,2.9,3.8,88,0.00,,,0.01,WUHU216HW,2013-12-13 21:51:00,
2013-12-13 15:56:00,34.9,32.0,29.92,East,90,2.5,3.4,89,0.00,,,0.01,WUHU216HW,2013-12-13 21:56:00,
2013-12-13 16:01:00,34.9,32.0,29.93,ESE,113,1.1,3.4,89,0.00,,,0.01,WUHU216HW,2013-12-13 22:01:00,
2013-12-13 16:06:00,34.9,32.0,29.92,East,90,1.3,2.9,89,0.00,,,0.01,WUHU216HW,2013-12-13 22:06:00,
2013-12-13 16:11:00,34.9,32.0,29.92,ESE,113,2.7,2.9,89,0.00,,,0.01,WUHU216HW,2013-12-13 22:11:00,
2013-12-13 16:16:00,34.7,31.8,29.92,East,90,1.3,2.9,89,0.00,,,0.01,WUHU216HW,2013-12-13 22:16:00,
2013-12-13 16:21:00,34.9,32.0,29.92,ESE,113,1.6,2.7,89,0.00,,,0.01,WUHU216HW,2013-12-13 22:21:00,
2013-12-13 16:26:00,34.7,31.8,29.93,NE,45,2.2,2.9,89,0.00,,,0.01,WUHU216HW,2013-12-13 22:26:00,
2013-12-13 16:31:00,34.7,31.8,29.93,East,90,1.8,2.9,89,0.00,,,0.01,WUHU216HW,2013-12-13 22:31:00,
2013-12-13 16:36:00,34.7,31.8,29.93,East,90,1.8,2.5,89,0.00,,,0.01,WUHU216HW,2013-12-13 22:36:00,
2013-12-13 16:41:00,34.6,31.6,29.93,East,90,1.8,2.7,89,0.00,,,0.01,WUHU216HW,2013-12-13 22:41:00,
2013-12-13 16:46:00,34.6,31.6,29.93,ENE,68,1.8,3.1,89,0.00,,,0.01,WUHU216HW,2013-12-13 22:46:00,
2013-12-13 16:51:00,34.6,31.6,29.93,ENE,68,2.0,3.4,89,0.00,,,0.01,WUHU216HW,2013-12-13 22:51:00,
2013-12-13 16:56:00,34.6,31.6,29.92,East,90,2.0,3.4,89,0.00,,,0.01,WUHU216HW,2013-12-13 22:56:00,
2013-12-13 17:01:00,34.6,31.6,29.93,East,90,1.3,2.9,89,0.00,,,0.01,WUHU216HW,2013-12-13 23:01:00,
2013-12-13 17:06:00,34.6,31.6,29.92,East,90,1.8,2.7,89,0.00,,,0.01,WUHU216HW,2013-12-13 23:06:00,
2013-12-13 17:11:00,34.6,31.6,29.92,ESE,113,2.5,3.4,89,0.00,,,0.01,WUHU216HW,2013-12-13 23:11:00,
2013-12-13 17:16:00,34.6,31.6,29.92,ENE,68,1.8,3.4,89,0.00,,,0.01,WUHU216HW,2013-12-13 23:16:00,
2013-12-13 17:21:00,34.6,31.6,29.92,ESE,113,2.5,2.9,89,0.00,,,0.01,WUHU216HW,2013-12-13 23:21:00,
2013-12-13 17:26:00,34.4,31.4,29.92,East,90,1.8,3.1,89,0.00,,,0.01,WUHU216HW,2013-12-13 23:26:00,
2013-12-13 17:31:00,34.4,31.4,29.92,ENE,68,2.5,3.4,89,0.00,,,0.01,WUHU216HW,2013-12-13 23:31:00,
2013-12-13 17:36:00,34.4,31.4,29.92,ENE,68,1.3,3.6,89,0.00,,,0.01,WUHU216HW,2013-12-13 23:36:00,
2013-12-13 17:41:00,34.4,31.7,29.93,ENE,68,2.2,3.6,90,0.00,,,0.01,WUHU216HW,2013-12-13 23:41:00,
2013-12-13 17:46:00,34.4,31.7,29.93,ENE,68,2.7,3.8,90,0.00,,,0.01,WUHU216HW,2013-12-13 23:46:00,
2013-12-13 17:51:00,34.4,31.7,29.93,ENE,68,2.5,3.8,90,0.00,,,0.01,WUHU216HW,2013-12-13 23:51:00,
2013-12-13 17:56:00,34.4,31.7,29.93,NE,45,1.3,3.4,90,0.00,,,0.01,WUHU216HW,2013-12-13 23:56:00,
2013-12-13 18:01:00,34.4,31.7,29.93,East,90,1.6,4.0,90,0.00,,,0.01,WUHU216HW,2013-12-14 00:01:00,
2013-12-13 18:06:00,34.4,31.7,29.93,East,90,4.7,4.7,90,0.00,,,0.01,WUHU216HW,2013-12-14 00:06:00,
2013-12-13 18:11:00,34.2,31.5,29.93,ENE,68,2.9,4.7,90,0.00,,,0.01,WUHU216HW,2013-12-14 00:11:00,
2013-12-13 18:16:00,34.2,31.5,29.93,ENE,68,2.2,4.7,90,0.00,,,0.01,WUHU216HW,2013-12-14 00:16:00,
2013-12-13 18:21:00,34.2,31.5,29.93,East,90,3.4,4.0,90,0.00,,,0.01,WUHU216HW,2013-12-14 00:21:00,
2013-12-13 18:26:00,34.2,31.5,29.93,East,90,2.5,4.7,90,0.00,,,0.01,WUHU216HW,2013-12-14 00:26:00,
2013-12-13 18:31:00,34.2,31.5,29.93,ENE,68,2.5,4.7,90,0.00,,,0.01,WUHU216HW,2013-12-14 00:31:00,
2013-12-13 18:36:00,34.2,31.5,29.93,NE,45,2.2,3.8,90,0.00,,,0.01,WUHU216HW,2013-12-14 00:36:00,
2013-12-13 18:41:00,34.2,31.5,29.93,East,90,1.8,3.8,90,0.00,,,0.01,WUHU216HW,2013-12-14 00:41:00,
2013-12-13 18:46:00,34.2,31.5,29.93,East,90,3.1,4.9,90,0.00,,,0.01,WUHU216HW,2013-12-14 00:46:00,
2013-12-13 18:51:00,34.2,31.5,29.93,NE,45,1.1,4.9,90,0.00,,,0.01,WUHU216HW,2013-12-14 00:51:00,
2013-12-13 18:56:00,34.4,31.7,29.93,ENE,68,3.4,3.4,90,0.00,,,0.01,WUHU216HW,2013-12-14 00:56:00,
2013-12-13 19:01:00,34.4,31.7,29.93,ENE,68,3.4,4.7,90,0.00,,,0.01,WUHU216HW,2013-12-14 01:01:00,
2013-12-13 19:06:00,34.4,31.7,29.93,East,90,1.3,4.7,90,0.00,,,0.01,WUHU216HW,2013-12-14 01:06:00,
2013-12-13 19:11:00,34.2,31.5,29.93,NNE,23,2.7,3.6,90,0.00,,,0.01,WUHU216HW,2013-12-14 01:11:00,
2013-12-13 19:13:00,34.2,31.5,29.93,ENE,68,1.8,3.6,90,0.00,,,0.01,WUHU216HW,2013-12-14 01:13:00,
2013-12-13 19:18:00,34.2,31.5,29.93,ENE,68,1.8,3.6,90,0.00,,,0.01,WUHU216HW,2013-12-14 01:18:00,
2013-12-13 19:23:00,34.2,31.5,29.93,ENE,68,1.8,4.0,90,0.00,,,0.01,WUHU216HW,2013-12-14 01:23:00,
2013-12-13 19:28:00,34.4,31.7,29.94,NE,45,2.5,4.0,90,0.00,,,0.01,WUHU216HW,2013-12-14 01:28:00,
2013-12-13 19:33:00,34.2,31.5,29.94,NNE,23,2.5,4.3,90,0.00,,,0.01,WUHU216HW,2013-12-14 01:33:00,
2013-12-13 19:38:00,34.2,31.5,29.94,NE,45,2.7,4.3,90,0.00,,,0.01,WUHU216HW,2013-12-14 01:38:00,
2013-12-13 19:43:00,34.2,31.5,29.94,ENE,68,2.0,3.8,90,0.00,,,0.01,WUHU216HW,2013-12-14 01:43:00,
2013-12-13 19:48:00,34.2,31.5,29.94,East,90,1.1,4.0,90,0.00,,,0.01,WUHU216HW,2013-12-14 01:48:00,
2013-12-13 19:53:00,34.2,31.5,29.94,NE,45,1.8,4.0,90,0.00,,,0.01,WUHU216HW,2013-12-14 01:53:00,
2013-12-13 19:58:00,34.2,31.5,29.94,NE,45,1.8,3.4,90,0.00,,,0.01,WUHU216HW,2013-12-14 01:58:00,
2013-12-13 20:03:00,34.2,31.5,29.94,NE,45,1.1,2.9,90,0.00,,,0.01,WUHU216HW,2013-12-14 02:03:00,
2013-12-13 20:08:00,34.4,31.7,29.94,NE,45,3.1,3.4,90,0.00,,,0.01,WUHU216HW,2013-12-14 02:08:00,
2013-12-13 20:13:00,34.4,31.7,29.94,NNE,23,3.6,5.4,90,0.00,,,0.01,WUHU216HW,2013-12-14 02:13:00,
2013-12-13 20:18:00,34.4,31.7,29.94,ENE,68,4.0,5.4,90,0.00,,,0.01,WUHU216HW,2013-12-14 02:18:00,
2013-12-13 20:23:00,34.2,31.5,29.94,NNE,23,2.2,4.3,90,0.00,,,0.01,WUHU216HW,2013-12-14 02:23:00,
2013-12-13 20:28:00,34.2,31.5,29.95,NE,45,1.6,4.3,90,0.00,,,0.01,WUHU216HW,2013-12-14 02:28:00,
2013-12-13 20:33:00,34.2,31.5,29.94,NE,45,2.5,4.0,90,0.00,,,0.01,WUHU216HW,2013-12-14 02:33:00,
2013-12-13 20:38:00,34.2,31.5,29.95,NNE,23,6.0,6.0,90,0.00,,,0.01,WUHU216HW,2013-12-14 02:38:00,
2013-12-13 20:43:00,34.2,31.5,29.95,NNE,23,4.0,6.0,90,0.00,,,0.01,WUHU216HW,2013-12-14 02:43:00,
2013-12-13 20:48:00,34.4,31.7,29.95,NE,45,4.7,6.0,90,0.00,,,0.01,WUHU216HW,2013-12-14 02:48:00,
2013-12-13 20:53:00,34.2,31.5,29.95,NNE,23,3.4,5.4,90,0.00,,,0.01,WUHU216HW,2013-12-14 02:53:00,
2013-12-13 20:58:00,34.2,31.5,29.95,NE,45,2.9,5.8,90,0.00,,,0.01,WUHU216HW,2013-12-14 02:58:00,
2013-12-13 21:03:00,34.2,31.5,29.95,NE,45,0.7,5.8,90,0.00,,,0.01,WUHU216HW,2013-12-14 03:03:00,
2013-12-13 21:08:00,34.2,31.5,29.95,North,0,4.5,4.9,90,0.00,,,0.01,WUHU216HW,2013-12-14 03:08:00,
2013-12-13 21:13:00,34.2,31.5,29.95,North,0,1.1,4.9,90,0.00,,,0.01,WUHU216HW,2013-12-14 03:13:00,
2013-12-13 21:18:00,34.2,31.5,29.95,NNE,23,1.6,5.4,90,0.00,,,0.01,WUHU216HW,2013-12-14 03:18:00,
2013-12-13 21:23:00,34.0,31.3,29.95,NNE,23,2.7,5.4,90,0.00,,,0.01,WUHU216HW,2013-12-14 03:23:00,
2013-12-13 21:28:00,34.0,31.3,29.95,NNE,23,4.0,6.5,90,0.00,,,0.01,WUHU216HW,2013-12-14 03:28:00,
2013-12-13 21:33:00,34.0,31.3,29.95,ENE,68,6.3,6.5,90,0.00,,,0.01,WUHU216HW,2013-12-14 03:33:00,
2013-12-13 21:38:00,33.8,31.1,29.94,NNE,23,2.9,7.4,90,0.00,,,0.01,WUHU216HW,2013-12-14 03:38:00,
2013-12-13 21:43:00,33.8,31.1,29.94,NNE,23,3.4,7.4,90,0.00,,,0.01,WUHU216HW,2013-12-14 03:43:00,
2013-12-13 21:48:00,33.8,31.1,29.95,NNE,23,4.3,6.3,90,0.00,,,0.01,WUHU216HW,2013-12-14 03:48:00,
2013-12-13 21:53:00,33.7,31.0,29.94,ENE,68,3.1,7.4,90,0.00,,,0.01,WUHU216HW,2013-12-14 03:53:00,
2013-12-13 21:58:00,33.7,31.0,29.94,NE,45,4.5,7.4,90,0.00,,,0.01,WUHU216HW,2013-12-14 03:58:00,
2013-12-13 22:03:00,33.7,31.0,29.94,North,0,4.0,6.5,90,0.00,,,0.01,WUHU216HW,2013-12-14 04:03:00,
2013-12-13 22:08:00,33.5,30.8,29.94,NNE,23,5.8,7.6,90,0.00,,,0.01,WUHU216HW,2013-12-14 04:08:00,
2013-12-13 22:13:00,33.5,30.8,29.95,NNE,23,6.9,7.6,90,0.00,,,0.01,WUHU216HW,2013-12-14 04:13:00,
2013-12-13 22:18:00,33.5,30.8,29.95,North,0,4.0,7.4,90,0.00,,,0.01,WUHU216HW,2013-12-14 04:18:00,
2013-12-13 22:23:00,33.5,30.8,29.95,NNE,23,5.6,7.4,90,0.00,,,0.01,WUHU216HW,2013-12-14 04:23:00,
2013-12-13 22:28:00,33.5,30.8,29.95,North,0,4.9,7.2,90,0.00,,,0.01,WUHU216HW,2013-12-14 04:28:00,
2013-12-13 22:33:00,33.5,30.8,29.95,North,0,4.0,9.8,90,0.00,,,0.01,WUHU216HW,2013-12-14 04:33:00,
2013-12-13 22:38:00,33.5,31.1,29.95,NNE,23,2.5,9.8,91,0.00,,,0.01,WUHU216HW,2013-12-14 04:38:00,
2013-12-13 22:43:00,33.5,31.1,29.95,North,0,4.0,6.3,91,0.00,,,0.01,WUHU216HW,2013-12-14 04:43:00,
2013-12-13 22:48:00,33.5,30.8,29.96,NNE,23,6.5,6.5,90,0.00,,,0.01,WUHU216HW,2013-12-14 04:48:00,
2013-12-13 22:53:00,33.5,31.1,29.96,NNE,23,3.8,8.9,91,0.00,,,0.01,WUHU216HW,2013-12-14 04:53:00,
2013-12-13 22:58:00,33.3,31.0,29.96,North,0,4.0,8.9,91,0.00,,,0.01,WUHU216HW,2013-12-14 04:58:00,
2013-12-13 23:01:00,33.3,31.0,29.96,NNE,23,5.8,8.5,91,0.00,,,0.01,WUHU216HW,2013-12-14 05:01:00,
2013-12-13 23:02:00,33.3,31.0,29.96,North,0,4.0,8.5,91,0.00,,,0.01,WUHU216HW,2013-12-14 05:02:00,
2013-12-13 23:07:00,33.3,31.0,29.96,North,0,1.3,8.5,91,0.00,,,0.01,WUHU216HW,2013-12-14 05:07:00,
2013-12-13 23:12:00,33.3,31.0,29.96,North,0,5.1,8.7,91,0.00,,,0.01,WUHU216HW,2013-12-14 05:12:00,
2013-12-13 23:17:00,33.3,31.0,29.97,NNW,338,4.0,8.7,91,0.00,,,0.01,WUHU216HW,2013-12-14 05:17:00,
2013-12-13 23:22:00,33.1,30.8,29.97,North,0,7.2,10.1,91,0.00,,,0.01,WUHU216HW,2013-12-14 05:22:00,
2013-12-13 23:27:00,33.1,30.8,29.96,NE,45,7.6,11.2,91,0.00,,,0.01,WUHU216HW,2013-12-14 05:27:00,
2013-12-13 23:32:00,33.1,30.8,29.96,North,0,6.0,11.2,91,0.00,,,0.01,WUHU216HW,2013-12-14 05:32:00,
2013-12-13 23:37:00,33.1,30.8,29.96,NNE,23,7.6,9.6,91,0.00,,,0.01,WUHU216HW,2013-12-14 05:37:00,
2013-12-13 23:42:00,33.1,30.8,29.96,North,0,6.9,11.0,91,0.00,,,0.01,WUHU216HW,2013-12-14 05:42:00,
2013-12-13 23:47:00,32.9,30.6,29.96,NE,45,5.6,11.0,91,0.00,,,0.01,WUHU216HW,2013-12-14 05:47:00,
2013-12-13 23:52:00,32.9,30.6,29.96,NNE,23,3.4,8.7,91,0.00,,,0.01,WUHU216HW,2013-12-14 05:52:00,
2013-12-13 23:57:00,32.9,30.6,29.96,NE,45,5.4,8.9,91,0.00,,,0.01,WUHU216HW,2013-12-14 05:57:00,